Year,Month,Day,Hour,Minute,Value (Times are PST for temperature in C)
2011,02,26,00,00,-10.20
2011,02,26,00,01,-10.20
2011,02,26,00,02,-10.20
2011,02,26,00,03,-10.20
2011,02,26,00,04,-10.20
2011,02,26,00,05,-10.30
2011,02,26,00,06,-10.30
2011,02,26,00,07,-10.30
2011,02,26,00,08,-10.30
2011,02,26,00,09,-10.30
2011,02,26,00,10,-10.30
2011,02,26,00,11,-10.20
2011,02,26,00,12,-10.20
2011,02,26,00,13,-10.20
2011,02,26,00,14,-10.20
2011,02,26,00,15,-10.30
2011,02,26,00,16,-10.30
2011,02,26,00,17,-10.30
2011,02,26,00,18,-10.30
2011,02,26,00,19,-10.30
2011,02,26,00,20,-10.30
2011,02,26,00,21,-10.30
2011,02,26,00,22,-10.30
2011,02,26,00,23,-10.30
2011,02,26,00,24,-10.30
2011,02,26,00,25,-10.30
2011,02,26,00,26,-10.30
2011,02,26,00,27,-10.30
2011,02,26,00,28,-10.30
2011,02,26,00,29,-10.30
2011,02,26,00,30,-10.30
2011,02,26,00,31,-10.30
2011,02,26,00,32,-10.30
2011,02,26,00,33,-10.30
2011,02,26,00,34,-10.30
2011,02,26,00,35,-10.30
2011,02,26,00,36,-10.30
2011,02,26,00,37,-10.30
2011,02,26,00,38,-10.30
2011,02,26,00,39,-10.30
2011,02,26,00,40,-10.40
2011,02,26,00,41,-10.40
2011,02,26,00,42,-10.40
2011,02,26,00,43,-10.40
2011,02,26,00,44,-10.40
2011,02,26,00,45,-10.40
2011,02,26,00,46,-10.40
2011,02,26,00,47,-10.40
2011,02,26,00,48,-10.40
2011,02,26,00,49,-10.40
2011,02,26,00,50,-10.40
2011,02,26,00,51,-10.40
2011,02,26,00,52,-10.40
2011,02,26,00,53,-10.40
2011,02,26,00,54,-10.40
2011,02,26,00,55,-10.40
2011,02,26,00,56,-10.40
2011,02,26,00,57,-10.40
2011,02,26,00,58,-10.40
2011,02,26,00,59,-10.40
2011,02,26,01,00,-10.40
2011,02,26,01,01,-10.40
2011,02,26,01,02,-10.40
2011,02,26,01,03,-10.40
2011,02,26,01,04,-10.40
2011,02,26,01,05,-10.40
2011,02,26,01,06,-10.40
2011,02,26,01,07,-10.30
2011,02,26,01,08,-10.30
2011,02,26,01,09,-10.30
2011,02,26,01,10,-10.30
2011,02,26,01,11,-10.30
2011,02,26,01,12,-10.30
2011,02,26,01,13,-10.30
2011,02,26,01,14,-10.30
2011,02,26,01,15,-10.30
2011,02,26,01,16,-10.40
2011,02,26,01,17,-10.40
2011,02,26,01,18,-10.40
2011,02,26,01,19,-10.40
2011,02,26,01,20,-10.40
2011,02,26,01,21,-10.40
2011,02,26,01,22,-10.40
2011,02,26,01,23,-10.40
2011,02,26,01,24,-10.40
2011,02,26,01,25,-10.40
2011,02,26,01,26,-10.40
2011,02,26,01,27,-10.40
2011,02,26,01,28,-10.40
2011,02,26,01,29,-10.40
2011,02,26,01,30,-10.40
2011,02,26,01,31,-10.40
2011,02,26,01,32,-10.40
2011,02,26,01,33,-10.40
2011,02,26,01,34,-10.40
2011,02,26,01,35,-10.40
2011,02,26,01,36,-10.40
2011,02,26,01,37,-10.40
2011,02,26,01,38,-10.40
2011,02,26,01,39,-10.40
2011,02,26,01,40,-10.40
2011,02,26,01,41,-10.40
2011,02,26,01,42,-10.40
2011,02,26,01,43,-10.40
2011,02,26,01,44,-10.40
2011,02,26,01,45,-10.40
2011,02,26,01,46,-10.40
2011,02,26,01,47,-10.40
2011,02,26,01,48,-10.40
2011,02,26,01,49,-10.40
2011,02,26,01,50,-10.40
2011,02,26,01,51,-10.30
2011,02,26,01,52,-10.30
2011,02,26,01,53,-10.30
2011,02,26,01,54,-10.30
2011,02,26,01,55,-10.30
2011,02,26,01,56,-10.30
2011,02,26,01,57,-10.30
2011,02,26,01,58,-10.30
2011,02,26,01,59,-10.30
2011,02,26,02,00,-10.30
2011,02,26,02,01,-10.30
2011,02,26,02,02,-10.20
2011,02,26,02,03,-10.20
2011,02,26,02,04,-10.30
2011,02,26,02,05,-10.20
2011,02,26,02,06,-10.20
2011,02,26,02,07,-10.20
2011,02,26,02,08,-10.30
2011,02,26,02,09,-10.20
2011,02,26,02,10,-10.30
2011,02,26,02,11,-10.30
2011,02,26,02,12,-10.30
2011,02,26,02,13,-10.30
2011,02,26,02,14,-10.30
2011,02,26,02,15,-10.30
2011,02,26,02,16,-10.30
2011,02,26,02,17,-10.30
2011,02,26,02,18,-10.30
2011,02,26,02,19,-10.30
2011,02,26,02,20,-10.30
2011,02,26,02,21,-10.30
2011,02,26,02,22,-10.30
2011,02,26,02,23,-10.30
2011,02,26,02,24,-10.30
2011,02,26,02,25,-10.30
2011,02,26,02,26,-10.30
2011,02,26,02,27,-10.30
2011,02,26,02,28,-10.30
2011,02,26,02,29,-10.30
2011,02,26,02,30,-10.30
2011,02,26,02,31,-10.30
2011,02,26,02,32,-10.30
2011,02,26,02,33,-10.30
2011,02,26,02,34,-10.30
2011,02,26,02,35,-10.30
2011,02,26,02,36,-10.30
2011,02,26,02,37,-10.30
2011,02,26,02,38,-10.30
2011,02,26,02,39,-10.30
2011,02,26,02,40,-10.20
2011,02,26,02,41,-10.20
2011,02,26,02,42,-10.20
2011,02,26,02,43,-10.20
2011,02,26,02,44,-10.20
2011,02,26,02,45,-10.10
2011,02,26,02,46,-10.10
2011,02,26,02,47,-10.10
2011,02,26,02,48,-10.10
2011,02,26,02,49,-10.10
2011,02,26,02,50,-10.10
2011,02,26,02,51,-10.10
2011,02,26,02,52,-10.10
2011,02,26,02,53,-10.10
2011,02,26,02,54,-10.10
2011,02,26,02,55,-10.10
2011,02,26,02,56,-10.10
2011,02,26,02,57,-10.10
2011,02,26,02,58,-10.10
2011,02,26,02,59,-10.00
2011,02,26,03,00,-10.00
2011,02,26,03,01,-10.00
2011,02,26,03,02,-9.90
2011,02,26,03,03,-9.90
2011,02,26,03,04,-9.90
2011,02,26,03,05,-9.90
2011,02,26,03,06,-9.90
2011,02,26,03,07,-9.90
2011,02,26,03,08,-9.90
2011,02,26,03,09,-9.90
2011,02,26,03,10,-9.90
2011,02,26,03,11,-9.80
2011,02,26,03,12,-9.80
2011,02,26,03,13,-9.80
2011,02,26,03,14,-9.80
2011,02,26,03,15,-9.80
2011,02,26,03,16,-9.80
2011,02,26,03,17,-9.80
2011,02,26,03,18,-9.80
2011,02,26,03,19,-9.80
2011,02,26,03,20,-9.80
2011,02,26,03,21,-9.80
2011,02,26,03,22,-9.80
2011,02,26,03,23,-9.80
2011,02,26,03,24,-9.80
2011,02,26,03,25,-9.70
2011,02,26,03,26,-9.70
2011,02,26,03,27,-9.70
2011,02,26,03,28,-9.70
2011,02,26,03,29,-9.70
2011,02,26,03,30,-9.70
2011,02,26,03,31,-9.70
2011,02,26,03,32,-9.70
2011,02,26,03,33,-9.70
2011,02,26,03,34,-9.70
2011,02,26,03,35,-9.70
2011,02,26,03,36,-9.70
2011,02,26,03,37,-9.70
2011,02,26,03,38,-9.70
2011,02,26,03,39,-9.70
2011,02,26,03,40,-9.60
2011,02,26,03,41,-9.60
2011,02,26,03,42,-9.60
2011,02,26,03,43,-9.60
2011,02,26,03,44,-9.60
2011,02,26,03,45,-9.60
2011,02,26,03,46,-9.50
2011,02,26,03,47,-9.50
2011,02,26,03,48,-9.50
2011,02,26,03,49,-9.40
2011,02,26,03,50,-9.40
2011,02,26,03,51,-9.40
2011,02,26,03,52,-9.30
2011,02,26,03,53,-9.30
2011,02,26,03,54,-9.30
2011,02,26,03,55,-9.20
2011,02,26,03,56,-9.20
2011,02,26,03,57,-9.10
2011,02,26,03,58,-9.10
2011,02,26,03,59,-9.00
2011,02,26,04,00,-9.00
2011,02,26,04,01,-8.90
2011,02,26,04,02,-8.90
2011,02,26,04,03,-8.90
2011,02,26,04,04,-8.80
2011,02,26,04,05,-8.80
2011,02,26,04,06,-8.80
2011,02,26,04,07,-8.80
2011,02,26,04,08,-8.70
2011,02,26,04,09,-8.70
2011,02,26,04,10,-8.70
2011,02,26,04,11,-8.70
2011,02,26,04,12,-8.70
2011,02,26,04,13,-8.60
2011,02,26,04,14,-8.60
2011,02,26,04,15,-8.60
2011,02,26,04,16,-8.50
2011,02,26,04,17,-8.50
2011,02,26,04,18,-8.40
2011,02,26,04,19,-8.40
2011,02,26,04,20,-8.40
2011,02,26,04,21,-8.40
2011,02,26,04,22,-8.40
2011,02,26,04,23,-8.30
2011,02,26,04,24,-8.30
2011,02,26,04,25,-8.30
2011,02,26,04,26,-8.20
2011,02,26,04,27,-8.20
2011,02,26,04,28,-8.20
2011,02,26,04,29,-8.20
2011,02,26,04,30,-8.10
2011,02,26,04,31,-8.10
2011,02,26,04,32,-8.10
2011,02,26,04,33,-8.00
2011,02,26,04,34,-8.00
2011,02,26,04,35,-8.00
2011,02,26,04,36,-7.90
2011,02,26,04,37,-7.90
2011,02,26,04,38,-7.90
2011,02,26,04,39,-7.80
2011,02,26,04,40,-7.80
2011,02,26,04,41,-7.80
2011,02,26,04,42,-7.80
2011,02,26,04,43,-7.70
2011,02,26,04,44,-7.70
2011,02,26,04,45,-7.60
2011,02,26,04,46,-7.50
2011,02,26,04,47,-7.50
2011,02,26,04,48,-7.40
2011,02,26,04,49,-7.40
2011,02,26,04,50,-7.30
2011,02,26,04,51,-7.30
2011,02,26,04,52,-7.20
2011,02,26,04,53,-7.20
2011,02,26,04,54,-7.20
2011,02,26,04,55,-7.10
2011,02,26,04,56,-7.10
2011,02,26,04,57,-7.10
2011,02,26,04,58,-7.00
2011,02,26,04,59,-7.00
2011,02,26,05,00,-7.00
2011,02,26,05,01,-6.90
2011,02,26,05,02,-6.90
2011,02,26,05,03,-6.80
2011,02,26,05,04,-6.80
2011,02,26,05,05,-6.80
2011,02,26,05,06,-6.80
2011,02,26,05,07,-6.80
2011,02,26,05,08,-6.80
2011,02,26,05,09,-6.80
2011,02,26,05,10,-6.80
2011,02,26,05,11,-6.70
2011,02,26,05,12,-6.70
2011,02,26,05,13,-6.70
2011,02,26,05,14,-6.70
2011,02,26,05,15,-6.70
2011,02,26,05,16,-6.70
2011,02,26,05,17,-6.60
2011,02,26,05,18,-6.60
2011,02,26,05,19,-6.60
2011,02,26,05,20,-6.60
2011,02,26,05,21,-6.50
2011,02,26,05,22,-6.50
2011,02,26,05,23,-6.50
2011,02,26,05,24,-6.40
2011,02,26,05,25,-6.30
2011,02,26,05,26,-6.30
2011,02,26,05,27,-6.30
2011,02,26,05,28,-6.20
2011,02,26,05,29,-6.10
2011,02,26,05,30,-6.10
2011,02,26,05,31,-6.00
2011,02,26,05,32,-5.90
2011,02,26,05,33,-5.90
2011,02,26,05,34,-5.80
2011,02,26,05,35,-5.70
2011,02,26,05,36,-5.60
2011,02,26,05,37,-5.50
2011,02,26,05,38,-5.40
2011,02,26,05,39,-5.30
2011,02,26,05,40,-5.30
2011,02,26,05,41,-5.30
2011,02,26,05,42,-5.20
2011,02,26,05,43,-5.10
2011,02,26,05,44,-5.10
2011,02,26,05,45,-5.00
2011,02,26,05,46,-5.00
2011,02,26,05,47,-4.90
2011,02,26,05,48,-4.90
2011,02,26,05,49,-4.90
2011,02,26,05,50,-4.90
2011,02,26,05,51,-4.90
2011,02,26,05,52,-4.90
2011,02,26,05,53,-4.90
2011,02,26,05,54,-4.90
2011,02,26,05,55,-4.90
2011,02,26,05,56,-4.90
2011,02,26,05,57,-4.90
2011,02,26,05,58,-4.90
2011,02,26,05,59,-4.90
2011,02,26,06,00,-4.90
2011,02,26,06,01,-4.90
2011,02,26,06,02,-4.90
2011,02,26,06,03,-4.90
2011,02,26,06,04,-4.90
2011,02,26,06,05,-5.00
2011,02,26,06,06,-5.00
2011,02,26,06,07,-5.00
2011,02,26,06,08,-5.10
2011,02,26,06,09,-5.10
2011,02,26,06,10,-5.10
2011,02,26,06,11,-5.10
2011,02,26,06,12,-5.10
2011,02,26,06,13,-5.20
2011,02,26,06,14,-5.20
2011,02,26,06,15,-5.20
2011,02,26,06,16,-5.20
2011,02,26,06,17,-5.20
2011,02,26,06,18,-5.30
2011,02,26,06,19,-5.30
2011,02,26,06,20,-5.30
2011,02,26,06,21,-5.30
2011,02,26,06,22,-5.30
2011,02,26,06,23,-5.30
2011,02,26,06,24,-5.30
2011,02,26,06,25,-5.30
2011,02,26,06,26,-5.30
2011,02,26,06,27,-5.30
2011,02,26,06,28,-5.40
2011,02,26,06,29,-5.40
2011,02,26,06,30,-5.40
2011,02,26,06,31,-5.40
2011,02,26,06,32,-5.40
2011,02,26,06,33,-5.40
2011,02,26,06,34,-5.40
2011,02,26,06,35,-5.40
2011,02,26,06,36,-5.40
2011,02,26,06,37,-5.40
2011,02,26,06,38,-5.40
2011,02,26,06,39,-5.40
2011,02,26,06,40,-5.40
2011,02,26,06,41,-5.40
2011,02,26,06,42,-5.40
2011,02,26,06,43,-5.40
2011,02,26,06,44,-5.40
2011,02,26,06,45,-5.40
2011,02,26,06,46,-5.40
2011,02,26,06,47,-5.30
2011,02,26,06,48,-5.30
2011,02,26,06,49,-5.40
2011,02,26,06,50,-5.30
2011,02,26,06,51,-5.30
2011,02,26,06,52,-5.30
2011,02,26,06,53,-5.30
2011,02,26,06,54,-5.30
2011,02,26,06,55,-5.30
2011,02,26,06,56,-5.30
2011,02,26,06,57,-5.30
2011,02,26,06,58,-5.30
2011,02,26,06,59,-5.30
2011,02,26,07,00,-5.30
2011,02,26,07,01,-5.30
2011,02,26,07,02,-5.30
2011,02,26,07,03,-5.30
2011,02,26,07,04,-5.30
2011,02,26,07,05,-5.20
2011,02,26,07,06,-5.20
2011,02,26,07,07,-5.20
2011,02,26,07,08,-5.20
2011,02,26,07,09,-5.20
2011,02,26,07,10,-5.20
2011,02,26,07,11,-5.20
2011,02,26,07,12,-5.20
2011,02,26,07,13,-5.20
2011,02,26,07,14,-5.20
2011,02,26,07,15,-5.20
2011,02,26,07,16,-5.10
2011,02,26,07,17,-5.10
2011,02,26,07,18,-5.10
2011,02,26,07,19,-5.10
2011,02,26,07,20,-5.10
2011,02,26,07,21,-5.10
2011,02,26,07,22,-5.00
2011,02,26,07,23,-5.00
2011,02,26,07,24,-5.00
2011,02,26,07,25,-5.00
2011,02,26,07,26,-4.90
2011,02,26,07,27,-4.90
2011,02,26,07,28,-4.90
2011,02,26,07,29,-4.90
2011,02,26,07,30,-4.90
2011,02,26,07,31,-4.90
2011,02,26,07,32,-4.80
2011,02,26,07,33,-4.80
2011,02,26,07,34,-4.80
2011,02,26,07,35,-4.80
2011,02,26,07,36,-4.80
2011,02,26,07,37,-4.80
2011,02,26,07,38,-4.80
2011,02,26,07,39,-4.80
2011,02,26,07,40,-4.80
2011,02,26,07,41,-4.70
2011,02,26,07,42,-4.70
2011,02,26,07,43,-4.70
2011,02,26,07,44,-4.70
2011,02,26,07,45,-4.70
2011,02,26,07,46,-4.70
2011,02,26,07,47,-4.70
2011,02,26,07,48,-4.70
2011,02,26,07,49,-4.60
2011,02,26,07,50,-4.60
2011,02,26,07,51,-4.60
2011,02,26,07,52,-4.50
2011,02,26,07,53,-4.50
2011,02,26,07,54,-4.40
2011,02,26,07,55,-4.40
2011,02,26,07,56,-4.30
2011,02,26,07,57,-4.30
2011,02,26,07,58,-4.30
2011,02,26,07,59,-4.30
2011,02,26,08,00,-4.20
2011,02,26,08,01,-4.20
2011,02,26,08,02,-4.20
2011,02,26,08,03,-4.20
2011,02,26,08,04,-4.20
2011,02,26,08,05,-4.20
2011,02,26,08,06,-4.20
2011,02,26,08,07,-4.20
2011,02,26,08,08,-4.20
2011,02,26,08,09,-4.20
2011,02,26,08,10,-4.10
2011,02,26,08,11,-4.10
2011,02,26,08,12,-4.10
2011,02,26,08,13,-4.10
2011,02,26,08,14,-4.10
2011,02,26,08,15,-4.10
2011,02,26,08,16,-4.10
2011,02,26,08,17,-4.00
2011,02,26,08,18,-4.00
2011,02,26,08,19,-4.00
2011,02,26,08,20,-4.00
2011,02,26,08,21,-4.00
2011,02,26,08,22,-4.00
2011,02,26,08,23,-4.00
2011,02,26,08,24,-4.00
2011,02,26,08,25,-3.90
2011,02,26,08,26,-3.90
2011,02,26,08,27,-3.90
2011,02,26,08,28,-3.90
2011,02,26,08,29,-3.80
2011,02,26,08,30,-3.80
2011,02,26,08,31,-3.80
2011,02,26,08,32,-3.80
2011,02,26,08,33,-3.70
2011,02,26,08,34,-3.70
2011,02,26,08,35,-3.70
2011,02,26,08,36,-3.60
2011,02,26,08,37,-3.60
2011,02,26,08,38,-3.60
2011,02,26,08,39,-3.60
2011,02,26,08,40,-3.60
2011,02,26,08,41,-3.50
2011,02,26,08,42,-3.50
2011,02,26,08,43,-3.50
2011,02,26,08,44,-3.40
2011,02,26,08,45,-3.40
2011,02,26,08,46,-3.40
2011,02,26,08,47,-3.40
2011,02,26,08,48,-3.30
2011,02,26,08,49,-3.30
2011,02,26,08,50,-3.30
2011,02,26,08,51,-3.30
2011,02,26,08,52,-3.20
2011,02,26,08,53,-3.20
2011,02,26,08,54,-3.20
2011,02,26,08,55,-3.20
2011,02,26,08,56,-3.20
2011,02,26,08,57,-3.20
2011,02,26,08,58,-3.10
2011,02,26,08,59,-3.10
2011,02,26,09,00,-3.10
2011,02,26,09,01,-3.10
2011,02,26,09,02,-3.00
2011,02,26,09,03,-3.00
2011,02,26,09,04,-2.90
2011,02,26,09,05,-2.90
2011,02,26,09,06,-2.80
2011,02,26,09,07,-2.80
2011,02,26,09,08,-2.80
2011,02,26,09,09,-2.70
2011,02,26,09,10,-2.70
2011,02,26,09,11,-2.60
2011,02,26,09,12,-2.60
2011,02,26,09,13,-2.50
2011,02,26,09,14,-2.50
2011,02,26,09,15,-2.40
2011,02,26,09,16,-2.40
2011,02,26,09,17,-2.40
2011,02,26,09,18,-2.30
2011,02,26,09,19,-2.30
2011,02,26,09,20,-2.30
2011,02,26,09,21,-2.20
2011,02,26,09,22,-2.20
2011,02,26,09,23,-2.20
2011,02,26,09,24,-2.10
2011,02,26,09,25,-2.10
2011,02,26,09,26,-2.00
2011,02,26,09,27,-2.00
2011,02,26,09,28,-1.90
2011,02,26,09,29,-1.90
2011,02,26,09,30,-1.80
2011,02,26,09,31,-1.80
2011,02,26,09,32,-1.80
2011,02,26,09,33,-1.70
2011,02,26,09,34,-1.70
2011,02,26,09,35,-1.70
2011,02,26,09,36,-1.60
2011,02,26,09,37,-1.60
2011,02,26,09,38,-1.60
2011,02,26,09,39,-1.60
2011,02,26,09,40,-1.50
2011,02,26,09,41,-1.50
2011,02,26,09,42,-1.50
2011,02,26,09,43,-1.40
2011,02,26,09,44,-1.40
2011,02,26,09,45,-1.40
2011,02,26,09,46,-1.40
2011,02,26,09,47,-1.30
2011,02,26,09,48,-1.30
2011,02,26,09,49,-1.30
2011,02,26,09,50,-1.30
2011,02,26,09,51,-1.20
2011,02,26,09,52,-1.20
2011,02,26,09,53,-1.20
2011,02,26,09,54,-1.10
2011,02,26,09,55,-1.10
2011,02,26,09,56,-1.10
2011,02,26,09,57,-1.10
2011,02,26,09,58,-1.10
2011,02,26,09,59,-1.10
2011,02,26,10,00,-1.10
2011,02,26,10,01,-1.10
2011,02,26,10,02,-1.10
2011,02,26,10,03,-1.10
2011,02,26,10,04,-1.10
2011,02,26,10,05,-1.10
2011,02,26,10,06,-1.10
2011,02,26,10,07,-1.10
2011,02,26,10,08,-1.00
2011,02,26,10,09,-1.00
2011,02,26,10,10,-1.00
2011,02,26,10,11,-0.90
2011,02,26,10,12,-0.90
2011,02,26,10,13,-0.90
2011,02,26,10,14,-0.80
2011,02,26,10,15,-0.80
2011,02,26,10,16,-0.80
2011,02,26,10,17,-0.80
2011,02,26,10,18,-0.80
2011,02,26,10,19,-0.70
2011,02,26,10,20,-0.70
2011,02,26,10,21,-0.70
2011,02,26,10,22,-0.70
2011,02,26,10,23,-0.70
2011,02,26,10,24,-0.60
2011,02,26,10,25,-0.60
2011,02,26,10,26,-0.60
2011,02,26,10,27,-0.60
2011,02,26,10,28,-0.60
2011,02,26,10,29,-0.60
2011,02,26,10,30,-0.60
2011,02,26,10,31,-0.60
2011,02,26,10,32,-0.60
2011,02,26,10,33,-0.60
2011,02,26,10,34,-0.60
2011,02,26,10,35,-0.50
2011,02,26,10,36,-0.50
2011,02,26,10,37,-0.40
2011,02,26,10,38,-0.40
2011,02,26,10,39,-0.40
2011,02,26,10,40,-0.30
2011,02,26,10,41,-0.30
2011,02,26,10,42,-0.30
2011,02,26,10,43,-0.30
2011,02,26,10,44,-0.20
2011,02,26,10,45,-0.20
2011,02,26,10,46,-0.20
2011,02,26,10,47,-0.20
2011,02,26,10,48,-0.10
2011,02,26,10,49,-0.10
2011,02,26,10,50,-0.10
2011,02,26,10,51,0.00
2011,02,26,10,52,0.00
2011,02,26,10,53,0.00
2011,02,26,10,54,-0.10
2011,02,26,10,55,-0.20
2011,02,26,10,56,-0.30
2011,02,26,10,57,-0.40
2011,02,26,10,58,-0.50
2011,02,26,10,59,-0.50
2011,02,26,11,00,-0.60
2011,02,26,11,01,-0.70
2011,02,26,11,02,-0.80
2011,02,26,11,03,-0.80
2011,02,26,11,04,-0.80
2011,02,26,11,05,-0.90
2011,02,26,11,06,-0.90
2011,02,26,11,07,-0.90
2011,02,26,11,08,-0.90
2011,02,26,11,09,-1.00
2011,02,26,11,10,-1.00
2011,02,26,11,11,-1.10
2011,02,26,11,12,-1.10
2011,02,26,11,13,-1.10
2011,02,26,11,14,-1.20
2011,02,26,11,15,-1.20
2011,02,26,11,16,-1.30
2011,02,26,11,17,-1.30
2011,02,26,11,18,-1.30
2011,02,26,11,19,-1.30
2011,02,26,11,20,-1.30
2011,02,26,11,21,-1.30
2011,02,26,11,22,-1.40
2011,02,26,11,23,-1.40
2011,02,26,11,24,-1.40
2011,02,26,11,25,-1.40
2011,02,26,11,26,-1.50
2011,02,26,11,27,-1.50
2011,02,26,11,28,-1.50
2011,02,26,11,29,-1.50
2011,02,26,11,30,-1.50
2011,02,26,11,31,-1.50
2011,02,26,11,32,-1.60
2011,02,26,11,33,-1.60
2011,02,26,11,34,-1.70
2011,02,26,11,35,-1.70
2011,02,26,11,36,-1.70
2011,02,26,11,37,-1.70
2011,02,26,11,38,-1.80
2011,02,26,11,39,-1.80
2011,02,26,11,40,-1.80
2011,02,26,11,41,-1.80
2011,02,26,11,42,-1.90
2011,02,26,11,43,-1.90
2011,02,26,11,44,-1.90
2011,02,26,11,45,-1.90
2011,02,26,11,46,-1.90
2011,02,26,11,47,-1.90
2011,02,26,11,48,-1.90
2011,02,26,11,49,-2.00
2011,02,26,11,50,-2.00
2011,02,26,11,51,-2.00
2011,02,26,11,52,-2.00
2011,02,26,11,53,-2.00
2011,02,26,11,54,-2.00
2011,02,26,11,55,-2.00
2011,02,26,11,56,-2.00
2011,02,26,11,57,-2.00
2011,02,26,11,58,-2.00
2011,02,26,11,59,-2.00
2011,02,26,12,00,-2.00
2011,02,26,12,01,-2.00
2011,02,26,12,02,-2.00
2011,02,26,12,03,-2.00
2011,02,26,12,04,-2.00
2011,02,26,12,05,-2.00
2011,02,26,12,06,-2.00
2011,02,26,12,07,-2.10
2011,02,26,12,08,-2.10
2011,02,26,12,09,-2.10
2011,02,26,12,10,-2.10
2011,02,26,12,11,-2.10
2011,02,26,12,12,-2.00
2011,02,26,12,13,-2.00
2011,02,26,12,14,-2.00
2011,02,26,12,15,-2.00
2011,02,26,12,16,-2.00
2011,02,26,12,17,-2.00
2011,02,26,12,18,-2.00
2011,02,26,12,19,-2.00
2011,02,26,12,20,-2.00
2011,02,26,12,21,-2.00
2011,02,26,12,22,-2.00
2011,02,26,12,23,-2.00
2011,02,26,12,24,-2.00
2011,02,26,12,25,-2.00
2011,02,26,12,26,-2.00
2011,02,26,12,27,-2.00
2011,02,26,12,28,-2.00
2011,02,26,12,29,-2.00
2011,02,26,12,30,-2.00
2011,02,26,12,31,-1.90
2011,02,26,12,32,-1.90
2011,02,26,12,33,-1.90
2011,02,26,12,34,-1.90
2011,02,26,12,35,-1.90
2011,02,26,12,36,-1.90
2011,02,26,12,37,-1.90
2011,02,26,12,38,-1.90
2011,02,26,12,39,-1.90
2011,02,26,12,40,-1.90
2011,02,26,12,41,-1.90
2011,02,26,12,42,-1.90
2011,02,26,12,43,-1.90
2011,02,26,12,44,-2.00
2011,02,26,12,45,-2.00
2011,02,26,12,46,-2.00
2011,02,26,12,47,-2.00
2011,02,26,12,48,-2.00
2011,02,26,12,49,-2.00
2011,02,26,12,50,-2.00
2011,02,26,12,51,-2.00
2011,02,26,12,52,-2.00
2011,02,26,12,53,-2.00
2011,02,26,12,54,-2.00
2011,02,26,12,55,-2.00
2011,02,26,12,56,-2.00
2011,02,26,12,57,-2.00
2011,02,26,12,58,-2.00
2011,02,26,12,59,-2.00
2011,02,26,13,00,-2.00
2011,02,26,13,01,-2.00
2011,02,26,13,02,-2.00
2011,02,26,13,03,-2.10
2011,02,26,13,04,-2.00
2011,02,26,13,05,-2.00
2011,02,26,13,06,-2.00
2011,02,26,13,07,-2.00
2011,02,26,13,08,-2.00
2011,02,26,13,09,-2.00
2011,02,26,13,10,-2.00
2011,02,26,13,11,-2.00
2011,02,26,13,12,-2.00
2011,02,26,13,13,-2.00
2011,02,26,13,14,-2.00
2011,02,26,13,15,-2.00
2011,02,26,13,16,-2.10
2011,02,26,13,17,-2.00
2011,02,26,13,18,-2.00
2011,02,26,13,19,-2.00
2011,02,26,13,20,-2.00
2011,02,26,13,21,-2.00
2011,02,26,13,22,-2.00
2011,02,26,13,23,-2.00
2011,02,26,13,24,-2.00
2011,02,26,13,25,-2.00
2011,02,26,13,26,-2.00
2011,02,26,13,27,-1.90
2011,02,26,13,28,-1.90
2011,02,26,13,29,-1.90
2011,02,26,13,30,-1.90
2011,02,26,13,31,-1.90
2011,02,26,13,32,-1.90
2011,02,26,13,33,-1.90
2011,02,26,13,34,-1.90
2011,02,26,13,35,-2.00
2011,02,26,13,36,-2.00
2011,02,26,13,37,-2.00
2011,02,26,13,38,-2.00
2011,02,26,13,39,-2.00
2011,02,26,13,40,-2.00
2011,02,26,13,41,-2.00
2011,02,26,13,42,-2.00
2011,02,26,13,43,-2.00
2011,02,26,13,44,-2.00
2011,02,26,13,45,-2.00
2011,02,26,13,46,-2.00
2011,02,26,13,47,-2.00
2011,02,26,13,48,-2.00
2011,02,26,13,49,-2.00
2011,02,26,13,50,-2.00
2011,02,26,13,51,-2.00
2011,02,26,13,52,-2.00
2011,02,26,13,53,-2.00
2011,02,26,13,54,-2.00
2011,02,26,13,55,-2.00
2011,02,26,13,56,-1.90
2011,02,26,13,57,-1.90
2011,02,26,13,58,-1.90
2011,02,26,13,59,-1.90
2011,02,26,14,00,-1.90
2011,02,26,14,01,-1.90
2011,02,26,14,02,-1.90
2011,02,26,14,03,-1.80
2011,02,26,14,04,-1.80
2011,02,26,14,05,-1.80
2011,02,26,14,06,-1.90
2011,02,26,14,07,-1.90
2011,02,26,14,08,-1.90
2011,02,26,14,09,-1.90
2011,02,26,14,10,-1.90
2011,02,26,14,11,-1.90
2011,02,26,14,12,-1.90
2011,02,26,14,13,-1.90
2011,02,26,14,14,-1.90
2011,02,26,14,15,-1.90
2011,02,26,14,16,-1.80
2011,02,26,14,17,-1.80
2011,02,26,14,18,-1.80
2011,02,26,14,19,-1.80
2011,02,26,14,20,-1.70
2011,02,26,14,21,-1.70
2011,02,26,14,22,-1.70
2011,02,26,14,23,-1.70
2011,02,26,14,24,-1.70
2011,02,26,14,25,-1.70
2011,02,26,14,26,-1.70
2011,02,26,14,27,-1.60
2011,02,26,14,28,-1.60
2011,02,26,14,29,-1.60
2011,02,26,14,30,-1.50
2011,02,26,14,31,-1.50
2011,02,26,14,32,-1.40
2011,02,26,14,33,-1.40
2011,02,26,14,34,-1.30
2011,02,26,14,35,-1.30
2011,02,26,14,36,-1.30
2011,02,26,14,37,-1.30
2011,02,26,14,38,-1.30
2011,02,26,14,39,-1.30
2011,02,26,14,40,-1.30
2011,02,26,14,41,-1.30
2011,02,26,14,42,-1.30
2011,02,26,14,43,-1.20
2011,02,26,14,44,-1.20
2011,02,26,14,45,-1.10
2011,02,26,14,46,-1.10
2011,02,26,14,47,-1.10
2011,02,26,14,48,-1.10
2011,02,26,14,49,-1.10
2011,02,26,14,50,-1.00
2011,02,26,14,51,-1.00
2011,02,26,14,52,-1.00
2011,02,26,14,53,-1.00
2011,02,26,14,54,-0.90
2011,02,26,14,55,-0.90
2011,02,26,14,56,-0.90
2011,02,26,14,57,-0.90
2011,02,26,14,58,-0.90
2011,02,26,14,59,-0.90
2011,02,26,15,00,-0.90
2011,02,26,15,01,-0.90
2011,02,26,15,02,-0.80
2011,02,26,15,03,-0.80
2011,02,26,15,04,-0.80
2011,02,26,15,05,-0.80
2011,02,26,15,06,-0.80
2011,02,26,15,07,-0.80
2011,02,26,15,08,-0.70
2011,02,26,15,09,-0.70
2011,02,26,15,10,-0.70
2011,02,26,15,11,-0.70
2011,02,26,15,12,-0.70
2011,02,26,15,13,-0.70
2011,02,26,15,14,-0.70
2011,02,26,15,15,-0.80
2011,02,26,15,16,-0.80
2011,02,26,15,17,-0.80
2011,02,26,15,18,-0.80
2011,02,26,15,19,-0.80
2011,02,26,15,20,-0.80
2011,02,26,15,21,-0.80
2011,02,26,15,22,-0.80
2011,02,26,15,23,-0.80
2011,02,26,15,24,-0.80
2011,02,26,15,25,-0.80
2011,02,26,15,26,-0.80
2011,02,26,15,27,-0.80
2011,02,26,15,28,-0.80
2011,02,26,15,29,-0.70
2011,02,26,15,30,-0.80
2011,02,26,15,31,-0.80
2011,02,26,15,32,-0.80
2011,02,26,15,33,-0.90
2011,02,26,15,34,-0.90
2011,02,26,15,35,-0.90
2011,02,26,15,36,-0.90
2011,02,26,15,37,-1.00
2011,02,26,15,38,-1.00
2011,02,26,15,39,-1.00
2011,02,26,15,40,-1.10
2011,02,26,15,41,-1.10
2011,02,26,15,42,-1.10
2011,02,26,15,43,-1.20
2011,02,26,15,44,-1.20
2011,02,26,15,45,-1.20
2011,02,26,15,46,-1.20
2011,02,26,15,47,-1.20
2011,02,26,15,48,-1.20
2011,02,26,15,49,-1.20
2011,02,26,15,50,-1.20
2011,02,26,15,51,-1.20
2011,02,26,15,52,-1.20
2011,02,26,15,53,-1.30
2011,02,26,15,54,-1.30
2011,02,26,15,55,-1.30
2011,02,26,15,56,-1.30
2011,02,26,15,57,-1.30
2011,02,26,15,58,-1.30
2011,02,26,15,59,-1.30
2011,02,26,16,00,-1.30
2011,02,26,16,01,-1.20
2011,02,26,16,02,-1.20
2011,02,26,16,03,-1.20
2011,02,26,16,04,-1.20
2011,02,26,16,05,-1.20
2011,02,26,16,06,-1.20
2011,02,26,16,07,-1.20
2011,02,26,16,08,-1.20
2011,02,26,16,09,-1.20
2011,02,26,16,10,-1.20
2011,02,26,16,11,-1.20
2011,02,26,16,12,-1.20
2011,02,26,16,13,-1.20
2011,02,26,16,14,-1.20
2011,02,26,16,15,-1.30
2011,02,26,16,16,-1.30
2011,02,26,16,17,-1.30
2011,02,26,16,18,-1.30
2011,02,26,16,19,-1.30
2011,02,26,16,20,-1.30
2011,02,26,16,21,-1.40
2011,02,26,16,22,-1.40
2011,02,26,16,23,-1.40
2011,02,26,16,24,-1.40
2011,02,26,16,25,-1.40
2011,02,26,16,26,-1.40
2011,02,26,16,27,-1.40
2011,02,26,16,28,-1.40
2011,02,26,16,29,-1.40
2011,02,26,16,30,-1.40
2011,02,26,16,31,-1.50
2011,02,26,16,32,-1.50
2011,02,26,16,33,-1.50
2011,02,26,16,34,-1.50
2011,02,26,16,35,-1.60
2011,02,26,16,36,-1.60
2011,02,26,16,37,-1.60
2011,02,26,16,38,-1.60
2011,02,26,16,39,-1.60
2011,02,26,16,40,-1.60
2011,02,26,16,41,-1.60
2011,02,26,16,42,-1.60
2011,02,26,16,43,-1.60
2011,02,26,16,44,-1.60
2011,02,26,16,45,-1.60
2011,02,26,16,46,-1.60
2011,02,26,16,47,-1.60
2011,02,26,16,48,-1.60
2011,02,26,16,49,-1.60
2011,02,26,16,50,-1.60
2011,02,26,16,51,-1.60
2011,02,26,16,52,-1.60
2011,02,26,16,53,-1.60
2011,02,26,16,54,-1.60
2011,02,26,16,55,-1.60
2011,02,26,16,56,-1.60
2011,02,26,16,57,-1.60
2011,02,26,16,58,-1.60
2011,02,26,16,59,-1.60
2011,02,26,17,00,-1.60
2011,02,26,17,01,-1.60
2011,02,26,17,02,-1.60
2011,02,26,17,03,-1.60
2011,02,26,17,04,-1.60
2011,02,26,17,05,-1.60
2011,02,26,17,06,-1.60
2011,02,26,17,07,-1.60
2011,02,26,17,08,-1.60
2011,02,26,17,09,-1.60
2011,02,26,17,10,-1.60
2011,02,26,17,11,-1.60